Skip Page Navigation
NASA JPL Caltech
NASA Logo - Jet Propulsion Laboratory + View the NASA Portal
+ Center for Near-Earth Object Studies
JPL Home Earth Solar System Stars & Galaxies Technology
JPL Solar System Dynamics
BODIES ORBITS EPHEMERIDES TOOLS PHYSICAL DATA DISCOVERY FAQ SITE MAP
IMPORTANT: The SSD Announcement email list is now available. Major changes are coming in the near future, including possible hostname and/or URL changes. To be notified of such changes, subscribe to this email list.

Please visit this page for more details.


JPL Small-Body Database Browser
Search: [ help ]  
34723 (2001 QV14)
Classification: Main-belt Asteroid          SPK-ID: 2034723
Ephemeris | Orbit Diagram | Orbital Elements | Mission Design | Physical Parameters | Discovery Circumstances | Close-Approach Data ]

[ show orbit diagram ]
Orbital Elements at Epoch 2458600.5 (2019-Apr-27.0) TDB
Reference: JPL 20 (heliocentric ecliptic J2000)
 Element Value Uncertainty (1-sigma)   Units 
e .08901195359422384 4.753e-08  
a 3.177821452485874 2.7278e-08 au
q 2.894957356826473 1.5354e-07 au
i 6.814853639270571 5.5158e-06 deg
node 23.97479637484658 4.7797e-05 deg
peri 187.8650719501519 5.8365e-05 deg
M 149.7740425671915 3.2811e-05 deg
tp 2457739.651520156412
(2016-Dec-17.15152016)
0.00018865 TDB
period 2069.153288725997
5.67
2.6642e-05
7.294e-08
d
yr
n .1739842098511979 2.2401e-09 deg/d
Q 3.460685548145276 2.9706e-08 au
  Orbit Determination Parameters
   # obs. used (total)      1029  
   data-arc span      11139 days (30.50 yr)  
   first obs. used      1988-03-18  
   last obs. used      2018-09-16  
   planetary ephem.      DE431  
   SB-pert. ephem.      SB431-N16  
   condition code      0  
   norm. resid. RMS      .5258  
   source      ORB  
   producer      Otto Matic  
   solution date      2018-Oct-03 19:11:54  

Additional Information
 Earth MOID = 1.88964 au 
 Jupiter MOID = 1.50482 au 
 T_jup = 3.183 
[ show covariance matrix ]

Ephemeris | Orbit Diagram | Orbital Elements | Mission Design | Physical Parameters | Discovery Circumstances | Close-Approach Data ]

Physical Parameter Table
Parameter Symbol Value Units Sigma Reference Notes
absolute magnitude H 13.7   n/a MPO358949  
diameter diameter 9.904 km 0.147 urn:nasa:pds:neowise_diameters_albedos::2.0[mainbelt] (http://adsabs.harvard.edu/abs/2011ApJ...741...68M)  
geometric albedo albedo 0.072   0.008 urn:nasa:pds:neowise_diameters_albedos::2.0[mainbelt] (http://adsabs.harvard.edu/abs/2011ApJ...741...68M)  

34723 (2001 QV14)          Discovered 2001-Aug-16 by LINEAR at Socorro
Reference: 20020128/Numbers.arcLast Updated: 2004-04-19

[ show close-approach data ]
Alternate Designations
 2001 QV14 = 1988 FB2 = 1999 CS43 = 2000 JP52 
Ephemeris | Orbit Diagram | Orbital Elements | Mission Design | Physical Parameters | Discovery Circumstances | Close-Approach Data ]
ABOUT SSD CREDITS/AWARDS PRIVACY/COPYRIGHT GLOSSARY LINKS
FirstGov 2019-Oct-14 07:11 UT
(server date/time)  
NASA Home Page
Site Manager:   Ryan S. Park
Webmaster  Alan B. Chamberlin